Location: Lynch Observatory
(39.9540°N, 75.1861°W)
Time: 01:33:45
(UTC-04:00)

NANOSAT C BR1 - Pass Details

Date: 18 April 2024
Orbit: 556 x 561 km, 98.1° (Epoch: 19 May)

Event Time Altitude Azimuth Distance (km) Brightness Sun altitude
Rises 04:42:43 0° 14° (NNE) 2,767 ? -17.5°
Reaches altitude 10° 04:44:52 10° 17° (NNE) 1,868 ? -17.2°
Maximum altitude 04:48:54 73° 102° (ESE) 595 ? -16.5°
Enters shadow 04:52:15 15° 186° (S) 1,583 ? -16.0°
